This demonstration page uses our WeatherBlox Daily Observations layout. Learn more.

Left ArrowRight Arrow

Hourly Observations for September 16, 2020

Temp ( °F °C ) Dew Point ( °F °C ) Humidity (%) Winds ( mph kmh ) Pressure ( in mb ) Visibility ( mi km ) Precip ( " mm )
12:53 am 00:53 Mostly Cloudy 78 25.6 68 20 71 71 N 3 6 29.98 1015 10 16 0.00 0.00
1:53 am 01:53 Partly Cloudy 75 23.9 68 20 79 79 N 5 7 29.98 1015 10 16 0.00 0.00
2:53 am 02:53 Partly Cloudy 76 24.4 68 20 77 77 NNE 3 6 29.97 1015 10 16 0.00 0.00
3:53 am 03:53 Partly Cloudy 75 23.9 68 20 79 79 Calm 29.96 1015 10 16 0.00 0.00
4:53 am 04:53 Partly Cloudy 74 23.3 68 20 82 82 Calm 29.95 1014 10 16 0.00 0.00
5:53 am 05:53 Partly Cloudy 74 23.3 68 20 82 82 Calm 29.96 1014 10 16 0.00 0.00
6:53 am 06:53 Partly Cloudy 74 23.3 68 20 82 82 Calm 29.97 1015 10 16 0.00 0.00
7:53 am 07:53 Partly Cloudy 75 23.9 69 20.6 82 82 Calm 29.97 1015 10 16 0.00 0.00
8:53 am 08:53 Sunny 79 26.1 70 21.1 74 74 Calm 29.98 1015 10 16 0.00 0.00
9:53 am 09:53 Sunny 83 28.3 70 21.1 65 65 Calm 29.99 1016 10 16 0.00 0.00
10:53 am 10:53 Mostly Cloudy 83 28.3 71 21.7 67 67 VRB 3 6 30.00 1016 10 16 0.00 0.00
11:53 am 11:53 Cloudy 83 28.3 70 21.1 65 65 Calm 30.00 1016 10 16 0.00 0.00
12:53 pm 12:53 Mostly Cloudy 87 30.6 71 21.7 59 59 NNE 6 9 29.98 1015 10 16 0.00 0.00
1:53 pm 13:53 Mostly Cloudy 87 30.6 71 21.7 59 59 NNW 7 11 29.98 1015 10 16 0.00 0.00
2:53 pm 14:53 Mostly Cloudy 86 30 69 20.6 57 57 N 3 6 29.96 1014 10 16 0.00 0.00
3:53 pm 15:53 Mostly Cloudy 87 30.6 66 18.9 50 50 N 6 9 29.94 1014 10 16 0.00 0.00
4:53 pm 16:53 Mostly Cloudy 87 30.6 68 20 53 53 E 6 9 29.93 1014 10 16 0.00 0.00
5:53 pm 17:53 Mostly Cloudy 85 29.4 68 20 57 57 ENE 3 6 29.93 1013 10 16 0.00 0.00
6:04 pm 18:04 Mostly Cloudy with Thunderstorms 85 29.4 68 20 57 57 ENE 5 7 29.92 1013 10 16 0.00 0.00
6:40 pm 18:40 Mostly Cloudy 81 27.2 71 21.7 72 72 NNW 5 7 29.93 1013 10 16 0.00 0.00
6:53 pm 18:53 Mostly Cloudy 82 27.8 70 21.1 67 67 Calm 29.93 1014 10 16 0.00 0.00
7:53 pm 19:53 Cloudy 83 28.3 70 21.1 65 65 Calm 29.95 1014 10 16 0.00 0.00
8:53 pm 20:53 Mostly Cloudy 81 27.2 71 21.7 72 72 Calm 29.96 1014 10 16 0.00 0.00
9:53 pm 21:53 Cloudy 81 27.2 71 21.7 72 72 Calm 29.98 1015 10 16 0.00 0.00
10:53 pm 22:53 Mostly Cloudy 81 27.2 70 21.1 69 69 Calm 29.98 1015 10 16 0.00 0.00
11:53 pm 23:53 Mostly Cloudy 81 27.2 68 20 65 65 NNE 3 6 29.98 1015 10 16 0.00 0.00

Powered by Vaisala Xweather